Location: ???????
(55.4362°N, 38.1183°E)
Time: 13:07:13
(UTC+00:00)

Cosmos 2219 Rocket - Pass Details

Date: 25 October 2021
Orbit: 826 x 848 km, 71.0° (Epoch: 01 December)

Event Time Altitude Azimuth Distance (km) Brightness Sun altitude
Exits shadow 03:01:58 - 319° (NW) 2,953 4.6 -11.3°
Reaches altitude 10° 03:03:22 10° 314° (NW) 2,468 4.2 -11.1°
Maximum altitude 03:08:21 33° 252° (WSW) 1,395 2.9 -10.4°
Drops below altitude 10° 03:13:19 10° 191° (S) 2,464 4.6 -9.7°
Sets 03:15:58 0° 182° (S) 3,397 5.4 -9.4°
